This is the latest recevied weather packets stored in our database for station/object N9JXN-13. If no packets are shown the sender has not sent any weather packets the latest 10 day(s).
| Time | Temp. | Humidity | Pressure | Rain* | Wind** | Luminosity | Snow |
|---|---|---|---|---|---|---|---|
| 1777721659 | 1.11° C | 94% | 1019.7 hPa | 0 mm | - | 21 W/m² | - |
| 1777720759 | 1.11° C | 94% | 1019.6 hPa | 0 mm | - | 16 W/m² | - |
| 1777719259 | 1.11° C | 93% | 1019.5 hPa | 0 mm | - | 5 W/m² | - |
| 1777718360 | 1.11° C | 93% | 1019.5 hPa | 0 mm | - | 0 W/m² | - |
| 1777715959 | 1.67° C | 92% | 1019.3 hPa | 0 mm | - | 0 W/m² | - |
| 1777714759 | 2.22° C | 92% | 1019.3 hPa | 0 mm | - | 0 W/m² | - |
| 1777709959 | 3.33° C | 89% | 1019.2 hPa | 0 mm | - | 0 W/m² | - |
| 1777709659 | 3.89° C | 89% | 1019.2 hPa | 0 mm | - | 0 W/m² | - |
| 1777704858 | 3.89° C | 85% | 1019.4 hPa | 0 mm | - | 0 W/m² | - |
| 1777701260 | 3.89° C | 84% | 1019.8 hPa | 0 mm | - | 0 W/m² | - |
| 1777700659 | 3.89° C | 83% | 1019.8 hPa | 0 mm | - | 0 W/m² | - |
| 1777697659 | 3.33° C | 83% | 1019.8 hPa | 0 mm | - | 0 W/m² | - |
| 1777697361 | 3.33° C | 82% | 1019.7 hPa | 0 mm | - | 0 W/m² | - |
| 1777695259 | 4.44° C | 77% | 1019.7 hPa | 0 mm | - | 0 W/m² | - |
| 1777694059 | 5° C | 73% | 1019.6 hPa | 0 mm | - | 0 W/m² | - |
| 1777693760 | 5° C | 74% | 1019.6 hPa | 0 mm | - | 0 W/m² | - |
| 1777692559 | 5° C | 75% | 1019.3 hPa | 0 mm | - | 0 W/m² | - |
| 1777689559 | 6.11° C | 74% | 1018.8 hPa | 0 mm | - | 0 W/m² | - |
| 1777689259 | 6.11° C | 75% | 1018.7 hPa | 0 mm | - | 0 W/m² | - |
| 1777688959 | 6.67° C | 74% | 1018.6 hPa | 0 mm | - | 0 W/m² | - |
| 1777687159 | 7.22° C | 73% | 1018 hPa | 0 mm | - | 0 W/m² | - |
| 1777685059 | 8.33° C | 70% | 1017.3 hPa | 0 mm | - | 0 W/m² | - |
| 1777684758 | 8.33° C | 69% | 1017.3 hPa | 0 mm | - | 0 W/m² | - |
| 1777682059 | 8.33° C | 65% | 1016.6 hPa | 0 mm | - | 9 W/m² | - |
| 1777681459 | 8.89° C | 63% | 1016.6 hPa | 0 mm | - | 12 W/m² | - |
* Rain latest hour (hover to see other rain measurements)
** Current wind speed in m/s (hover to see current wind gust speed)